International Virtual Aviation Organisation

Russian Federation and Kazakhstan MCD

 

Карточка аэропорта UUYY

Внимание!
Информация на этой странице в стадии наполнения.
Если вы не увидели какой-то информации, или заметили неточность - пожалуйста сообщите нам!
Спасибо!
Команда RU-STAFF
Название аэропортаСыктывкар
Название аэропорта (англ.)Syktyvkar
Превышение341 ft. (103.9 m.)
Координаты61°38.502', 50°50.298'
Высота перехода700
Эшелон переходаQFE>760: FL40; 760>QFE>733: FL50; 733 >QFE :FL60;
Коды ответчика3130-3134, 5752-5757, 5770-5777, 6701-6717
Зона ОрВДСыктывкар РПИ (UUYY)
Данные METARUUYY 302200Z 20004MPS CAVOK 01/M02 Q1013 R18/29//51 NOSIG RMK QFE751/1002
Проноз погоды (TAF)UUYY 302000Z 3021/3121 20003G10MPS 9000 BKN016 TEMPO 3021/3024 6000 -SHRA FEW011 BKN016CB FM310000 20003G08MPS 6000 -SHRASN BKN006 BKN017CB TEMPO 3100/3109 2100 -SHSN BR BKN003 BKN016CB BECMG 3109/3111 33003G10MPS FEW011 BKN017CB TEMPO 3111/3112 BKN006 BKN016CB
NOTAMshow/hide NOTAM
AWOS   TABLE

Информация о ВПП

ВПП Длина ВПП (м.) Покрытие Курс ВПП Частота ILS
012500Асфальтобетон6108.3
192500Асфальтобетон186111.7

Диспетчерские позиции

Позывной Наименование органа УВД Частота
UUYY_TWRСивкар-Старт124.600
UUYY_R_APPСивкар-Круг124.600



Спутниковое изображение